Time,TemperatureF,DewpointF,PressureIn,WindDirection,WindDirectionDegrees,WindSpeedMPH,WindSpeedGustMPH,Humidity,HourlyPrecipIn,Conditions,Clouds,dailyrainin,SoftwareType,DateUTC
2013-11-02 00:01:00,53.5,52.7,29.85,ESE,102,0.0,0.0,97,0.00,,---,0.00,VWS V14.01,2013-11-02 05:01:00,
2013-11-02 00:05:00,53.4,52.6,29.85,East,101,0.0,0.0,97,0.00,,---,0.00,VWS V14.01,2013-11-02 05:05:00,
2013-11-02 00:10:00,53.3,52.5,29.85,East,101,0.0,0.0,97,0.00,,---,0.00,VWS V14.01,2013-11-02 05:10:00,
2013-11-02 00:15:00,53.1,52.3,29.85,East,101,0.0,0.0,97,0.00,,---,0.00,VWS V14.01,2013-11-02 05:15:00,
2013-11-02 00:20:00,53.1,52.3,29.85,East,101,0.0,0.0,97,0.00,,---,0.00,VWS V14.01,2013-11-02 05:20:00,
2013-11-02 00:25:00,53.0,52.2,29.85,East,101,0.0,0.0,97,0.00,,---,0.00,VWS V14.01,2013-11-02 05:25:00,
2013-11-02 00:30:00,52.8,52.0,29.85,ESE,102,0.0,0.0,97,0.00,,---,0.00,VWS V14.01,2013-11-02 05:30:00,
2013-11-02 00:35:00,52.6,51.8,29.85,East,101,0.0,0.0,97,0.00,,---,0.00,VWS V14.01,2013-11-02 05:35:00,
2013-11-02 00:40:00,52.4,51.6,29.85,East,101,0.0,0.0,97,0.00,,---,0.00,VWS V14.01,2013-11-02 05:40:00,
2013-11-02 00:45:00,52.2,51.4,29.85,East,101,0.0,0.0,97,0.00,,---,0.00,VWS V14.01,2013-11-02 05:45:00,
2013-11-02 00:50:00,52.0,51.2,29.86,ESE,102,0.0,0.0,97,0.00,,---,0.00,VWS V14.01,2013-11-02 05:50:00,
2013-11-02 00:55:00,51.8,51.0,29.85,ESE,102,0.0,0.0,97,0.00,,---,0.00,VWS V14.01,2013-11-02 05:55:00,
2013-11-02 01:00:00,51.5,50.7,29.86,ESE,102,0.0,0.0,97,0.00,,---,0.00,VWS V14.01,2013-11-02 06:00:00,
2013-11-02 01:05:00,51.4,50.6,29.85,ESE,102,0.0,0.0,97,0.00,,---,0.00,VWS V14.01,2013-11-02 06:05:00,
2013-11-02 01:10:00,51.4,50.6,29.86,ESE,102,0.0,0.0,97,0.00,,---,0.00,VWS V14.01,2013-11-02 06:10:00,
2013-11-02 01:15:00,51.2,50.4,29.86,ESE,102,0.0,0.0,97,0.00,,---,0.00,VWS V14.01,2013-11-02 06:15:00,
2013-11-02 01:20:00,51.1,50.3,29.86,East,101,0.0,0.0,97,0.00,,---,0.00,VWS V14.01,2013-11-02 06:20:00,
2013-11-02 01:25:00,51.0,50.2,29.86,ESE,102,0.0,0.0,97,0.00,,---,0.00,VWS V14.01,2013-11-02 06:25:00,
2013-11-02 01:30:00,50.9,50.1,29.86,East,101,0.0,0.0,97,0.00,,---,0.00,VWS V14.01,2013-11-02 06:30:00,
2013-11-02 01:35:00,50.8,50.3,29.86,ESE,102,0.0,0.0,98,0.00,,---,0.00,VWS V14.01,2013-11-02 06:35:00,
2013-11-02 01:40:00,50.7,50.2,29.85,ESE,102,0.0,0.0,98,0.00,,---,0.00,VWS V14.01,2013-11-02 06:40:00,
2013-11-02 01:45:00,50.6,50.1,29.86,East,101,0.0,0.0,98,0.00,,---,0.00,VWS V14.01,2013-11-02 06:45:00,
2013-11-02 01:50:00,50.6,50.1,29.86,East,101,0.0,0.0,98,0.00,,---,0.00,VWS V14.01,2013-11-02 06:50:00,
2013-11-02 01:55:00,50.6,50.1,29.86,East,101,0.0,0.0,98,0.00,,---,0.00,VWS V14.01,2013-11-02 06:55:00,
2013-11-02 02:00:00,50.5,50.0,29.85,ESE,102,0.0,0.0,98,0.00,,---,0.00,VWS V14.01,2013-11-02 07:00:00,
2013-11-02 02:05:00,50.4,49.9,29.85,East,101,0.0,0.0,98,0.00,,---,0.00,VWS V14.01,2013-11-02 07:05:00,
2013-11-02 02:10:00,50.3,49.8,29.86,ESE,102,0.0,0.0,98,0.00,,---,0.00,VWS V14.01,2013-11-02 07:10:00,
2013-11-02 02:15:00,50.4,49.9,29.85,East,101,0.0,0.0,98,0.00,,---,0.00,VWS V14.01,2013-11-02 07:15:00,
2013-11-02 02:20:00,50.4,49.9,29.85,ESE,102,0.0,0.0,98,0.00,,---,0.00,VWS V14.01,2013-11-02 07:20:00,
2013-11-02 02:25:00,50.4,49.9,29.86,ESE,102,0.0,0.0,98,0.00,,---,0.00,VWS V14.01,2013-11-02 07:25:00,
2013-11-02 02:30:00,50.3,49.8,29.86,ESE,102,0.0,0.0,98,0.00,,---,0.00,VWS V14.01,2013-11-02 07:30:00,
2013-11-02 02:35:00,50.2,49.7,29.86,ESE,102,0.0,0.0,98,0.00,,---,0.00,VWS V14.01,2013-11-02 07:35:00,
2013-11-02 02:40:00,50.0,49.5,29.85,East,101,0.0,0.0,98,0.00,,---,0.00,VWS V14.01,2013-11-02 07:40:00,
2013-11-02 02:45:00,49.8,49.3,29.85,ESE,102,0.0,0.0,98,0.00,,---,0.00,VWS V14.01,2013-11-02 07:45:00,
2013-11-02 02:50:00,49.7,49.2,29.85,East,101,0.0,0.0,98,0.00,,---,0.00,VWS V14.01,2013-11-02 07:50:00,
2013-11-02 02:55:00,49.6,49.1,29.85,East,101,0.0,0.0,98,0.00,,---,0.00,VWS V14.01,2013-11-02 07:55:00,
2013-11-02 03:00:00,49.6,49.1,29.85,East,101,0.0,0.0,98,0.00,,---,0.00,VWS V14.01,2013-11-02 08:00:00,
2013-11-02 03:05:00,49.5,49.0,29.84,East,101,0.0,0.0,98,0.00,,---,0.00,VWS V14.01,2013-11-02 08:05:00,
2013-11-02 03:10:00,49.4,48.9,29.84,East,101,0.0,0.0,98,0.00,,---,0.00,VWS V14.01,2013-11-02 08:10:00,
2013-11-02 03:15:00,49.3,48.8,29.84,East,101,0.0,0.0,98,0.00,,---,0.00,VWS V14.01,2013-11-02 08:15:00,
2013-11-02 03:20:00,49.2,48.7,29.84,East,101,0.0,0.0,98,0.00,,---,0.00,VWS V14.01,2013-11-02 08:20:00,
2013-11-02 03:25:00,49.1,48.6,29.84,ESE,102,0.0,0.0,98,0.00,,---,0.00,VWS V14.01,2013-11-02 08:25:00,
2013-11-02 03:30:00,48.9,48.4,29.84,ESE,102,0.0,0.0,98,0.00,,---,0.00,VWS V14.01,2013-11-02 08:30:00,
2013-11-02 03:35:00,49.1,48.6,29.84,East,101,0.0,0.0,98,0.00,,---,0.00,VWS V14.01,2013-11-02 08:35:00,
2013-11-02 03:40:00,49.2,48.7,29.84,East,101,0.0,0.0,98,0.00,,---,0.00,VWS V14.01,2013-11-02 08:40:00,
2013-11-02 03:45:00,49.1,48.6,29.85,ESE,102,0.0,0.0,98,0.00,,---,0.00,VWS V14.01,2013-11-02 08:45:00,
2013-11-02 03:50:00,49.1,48.6,29.85,ESE,102,0.0,0.0,98,0.00,,---,0.00,VWS V14.01,2013-11-02 08:50:00,
2013-11-02 03:55:00,49.0,48.5,29.85,ESE,102,0.0,0.0,98,0.00,,---,0.00,VWS V14.01,2013-11-02 08:55:00,
2013-11-02 04:00:00,49.0,48.5,29.85,East,101,0.0,0.0,98,0.00,,---,0.00,VWS V14.01,2013-11-02 09:00:00,
2013-11-02 04:05:00,48.9,48.4,29.86,East,101,0.0,0.0,98,0.00,,---,0.00,VWS V14.01,2013-11-02 09:05:00,
2013-11-02 04:10:00,48.9,48.4,29.85,East,101,0.0,0.0,98,0.00,,---,0.00,VWS V14.01,2013-11-02 09:10:00,
2013-11-02 04:15:00,48.8,48.3,29.85,East,101,0.0,0.0,98,0.00,,---,0.00,VWS V14.01,2013-11-02 09:15:00,
2013-11-02 04:20:00,48.7,48.2,29.86,ESE,102,0.0,0.0,98,0.00,,---,0.00,VWS V14.01,2013-11-02 09:20:00,
2013-11-02 04:25:00,48.7,48.2,29.86,East,101,0.0,0.0,98,0.00,,---,0.00,VWS V14.01,2013-11-02 09:25:00,
2013-11-02 04:30:00,48.7,48.2,29.86,ESE,102,0.0,0.0,98,0.00,,---,0.00,VWS V14.01,2013-11-02 09:30:00,
2013-11-02 04:35:00,48.6,48.1,29.86,East,101,0.0,0.0,98,0.00,,---,0.00,VWS V14.01,2013-11-02 09:35:00,
2013-11-02 04:40:00,48.6,48.1,29.86,ESE,102,0.0,0.0,98,0.00,,---,0.00,VWS V14.01,2013-11-02 09:40:00,
2013-11-02 04:45:00,48.6,48.1,29.86,East,101,0.0,0.0,98,0.00,,---,0.00,VWS V14.01,2013-11-02 09:45:00,
2013-11-02 04:50:00,48.7,48.2,29.87,ESE,102,0.0,0.0,98,0.00,,---,0.00,VWS V14.01,2013-11-02 09:50:00,
2013-11-02 04:55:00,48.8,48.3,29.87,ESE,102,0.0,0.0,98,0.00,,---,0.00,VWS V14.01,2013-11-02 09:55:00,
2013-11-02 05:00:00,48.8,48.3,29.87,East,101,0.0,0.0,98,0.00,,---,0.00,VWS V14.01,2013-11-02 10:00:00,
2013-11-02 05:05:00,48.8,48.5,29.87,ESE,102,0.0,0.0,99,0.00,,---,0.00,VWS V14.01,2013-11-02 10:05:00,
2013-11-02 05:10:00,49.0,48.7,29.87,East,101,0.0,0.0,99,0.00,,---,0.00,VWS V14.01,2013-11-02 10:10:00,
2013-11-02 05:15:00,49.1,48.8,29.87,East,101,0.0,0.0,99,0.00,,---,0.00,VWS V14.01,2013-11-02 10:15:00,
2013-11-02 05:20:00,49.1,48.8,29.87,ESE,102,0.0,0.0,99,0.00,,---,0.00,VWS V14.01,2013-11-02 10:20:00,
2013-11-02 05:25:00,49.2,48.9,29.87,East,101,0.0,0.0,99,0.00,,---,0.00,VWS V14.01,2013-11-02 10:25:00,
2013-11-02 05:30:00,49.3,49.0,29.87,ESE,102,0.0,0.0,99,0.00,,---,0.00,VWS V14.01,2013-11-02 10:30:00,
2013-11-02 05:34:00,49.5,49.2,29.87,East,101,0.0,0.0,99,0.00,,---,0.00,VWS V14.01,2013-11-02 10:34:00,
2013-11-02 05:39:00,49.8,49.5,29.87,East,101,0.0,0.0,99,0.00,,---,0.00,VWS V14.01,2013-11-02 10:39:00,
2013-11-02 05:44:00,50.0,49.7,29.87,East,101,0.0,0.0,99,0.00,,---,0.00,VWS V14.01,2013-11-02 10:44:00,
2013-11-02 05:49:00,50.2,49.9,29.88,East,101,0.0,0.0,99,0.00,,---,0.00,VWS V14.01,2013-11-02 10:49:00,
2013-11-02 05:54:00,50.4,50.1,29.88,ESE,102,0.0,0.0,99,0.00,,---,0.00,VWS V14.01,2013-11-02 10:54:00,
2013-11-02 05:59:00,50.4,50.1,29.89,East,101,0.0,0.0,99,0.00,,---,0.00,VWS V14.01,2013-11-02 10:59:00,
2013-11-02 06:04:00,50.3,50.0,29.89,ESE,102,0.0,0.0,99,0.00,,---,0.00,VWS V14.01,2013-11-02 11:04:00,
2013-11-02 06:09:00,50.3,50.0,29.89,ESE,102,0.0,0.0,99,0.00,,---,0.00,VWS V14.01,2013-11-02 11:09:00,
2013-11-02 06:14:00,50.4,50.1,29.89,East,101,0.0,0.0,99,0.00,,---,0.00,VWS V14.01,2013-11-02 11:14:00,
2013-11-02 06:19:00,50.6,50.3,29.89,ESE,102,0.0,0.0,99,0.00,,---,0.00,VWS V14.01,2013-11-02 11:19:00,
2013-11-02 06:24:00,50.8,50.5,29.89,East,101,0.0,0.0,99,0.00,,---,0.00,VWS V14.01,2013-11-02 11:24:00,
2013-11-02 06:29:00,51.0,50.7,29.89,East,101,0.0,0.0,99,0.00,,---,0.00,VWS V14.01,2013-11-02 11:29:00,
2013-11-02 06:34:00,51.2,50.9,29.89,East,101,0.0,0.0,99,0.00,,---,0.00,VWS V14.01,2013-11-02 11:34:00,
2013-11-02 06:39:00,51.4,51.1,29.90,NW,311,0.0,1.0,99,0.00,,---,0.00,VWS V14.01,2013-11-02 11:39:00,
2013-11-02 06:44:00,51.6,51.3,29.90,NW,311,0.0,1.0,99,0.00,,---,0.00,VWS V14.01,2013-11-02 11:44:00,
2013-11-02 06:49:00,51.8,51.5,29.90,WNW,297,0.0,1.0,99,0.00,,---,0.00,VWS V14.01,2013-11-02 11:49:00,
2013-11-02 06:54:00,51.9,51.6,29.90,WNW,296,0.0,1.0,99,0.00,,---,0.00,VWS V14.01,2013-11-02 11:54:00,
2013-11-02 06:59:00,52.1,51.8,29.90,ENE,72,0.0,1.0,99,0.00,,---,0.00,VWS V14.01,2013-11-02 11:59:00,
2013-11-02 07:04:00,52.2,51.9,29.90,ENE,72,0.0,1.0,99,0.00,,---,0.00,VWS V14.01,2013-11-02 12:04:00,
2013-11-02 07:09:00,52.3,52.0,29.91,ENE,72,0.0,1.0,99,0.00,,---,0.00,VWS V14.01,2013-11-02 12:09:00,
2013-11-02 07:14:00,52.4,52.1,29.91,ENE,69,0.0,1.0,99,0.00,,---,0.00,VWS V14.01,2013-11-02 12:14:00,
2013-11-02 07:19:00,52.6,52.3,29.91,WNW,302,0.0,1.0,99,0.00,,---,0.00,VWS V14.01,2013-11-02 12:19:00,
2013-11-02 07:24:00,52.7,52.4,29.91,WNW,302,0.0,1.0,99,0.00,,---,0.00,VWS V14.01,2013-11-02 12:24:00,
2013-11-02 07:29:00,52.8,52.5,29.91,WNW,302,0.0,0.0,99,0.00,,---,0.00,VWS V14.01,2013-11-02 12:29:00,
2013-11-02 07:34:00,52.9,52.6,29.91,WNW,302,0.0,0.0,99,0.00,,---,0.00,VWS V14.01,2013-11-02 12:34:00,
2013-11-02 07:39:00,52.9,52.6,29.91,NW,311,0.0,0.0,99,0.00,,---,0.00,VWS V14.01,2013-11-02 12:39:00,
2013-11-02 07:44:00,53.0,52.7,29.91,NW,311,0.0,0.0,99,0.00,,---,0.00,VWS V14.01,2013-11-02 12:44:00,
2013-11-02 07:49:00,53.1,52.8,29.92,NW,311,0.0,0.0,99,0.00,,---,0.00,VWS V14.01,2013-11-02 12:49:00,
2013-11-02 07:54:00,53.2,52.9,29.92,NW,311,0.0,0.0,99,0.00,,---,0.00,VWS V14.01,2013-11-02 12:54:00,
2013-11-02 07:59:00,53.3,53.0,29.92,NW,311,0.0,0.0,99,0.00,,---,0.00,VWS V14.01,2013-11-02 12:59:00,
2013-11-02 08:04:00,53.5,53.2,29.92,NW,311,0.0,0.0,99,0.00,,---,0.00,VWS V14.01,2013-11-02 13:04:00,
2013-11-02 08:09:00,53.7,53.4,29.93,NW,311,0.0,0.0,99,0.00,,---,0.00,VWS V14.01,2013-11-02 13:09:00,
2013-11-02 08:14:00,53.8,53.5,29.93,NW,309,0.0,0.0,99,0.00,,---,0.00,VWS V14.01,2013-11-02 13:14:00,
2013-11-02 08:19:00,54.0,53.7,29.93,NW,309,0.0,0.0,99,0.00,,---,0.00,VWS V14.01,2013-11-02 13:19:00,
2013-11-02 08:24:00,54.3,54.0,29.93,NW,309,0.0,0.0,99,0.00,,---,0.00,VWS V14.01,2013-11-02 13:24:00,
2013-11-02 08:29:00,54.6,54.3,29.93,NW,309,0.0,0.0,99,0.00,,---,0.00,VWS V14.01,2013-11-02 13:29:00,
2013-11-02 08:34:00,54.7,54.4,29.93,NW,309,0.0,0.0,99,0.00,,---,0.00,VWS V14.01,2013-11-02 13:34:00,
2013-11-02 08:39:00,54.7,54.4,29.93,NW,309,0.0,0.0,99,0.00,,---,0.00,VWS V14.01,2013-11-02 13:39:00,
2013-11-02 08:44:00,54.8,54.5,29.93,NNW,338,0.0,0.0,99,0.00,,---,0.00,VWS V14.01,2013-11-02 13:44:00,
2013-11-02 08:49:00,55.1,54.8,29.94,NNW,333,0.0,0.0,99,0.00,,---,0.00,VWS V14.01,2013-11-02 13:49:00,
2013-11-02 08:54:00,55.4,55.1,29.94,NNW,333,0.0,0.0,99,0.00,,---,0.00,VWS V14.01,2013-11-02 13:54:00,
2013-11-02 08:59:00,55.7,55.4,29.94,NNW,333,0.0,0.0,99,0.00,,---,0.00,VWS V14.01,2013-11-02 13:59:00,
2013-11-02 09:04:00,56.1,55.8,29.94,NNW,333,0.0,0.0,99,0.00,,---,0.00,VWS V14.01,2013-11-02 14:04:00,
2013-11-02 09:09:00,56.8,56.5,29.94,NNW,333,0.0,0.0,99,0.00,,---,0.00,VWS V14.01,2013-11-02 14:09:00,
2013-11-02 09:14:00,57.4,57.1,29.94,NNE,24,0.0,0.0,99,0.00,,---,0.00,VWS V14.01,2013-11-02 14:14:00,
2013-11-02 09:19:00,58.1,57.5,29.95,North,6,0.0,1.0,98,0.00,,---,0.00,VWS V14.01,2013-11-02 14:19:00,
2013-11-02 09:24:00,59.1,58.2,29.94,North,354,0.0,1.0,97,0.00,,---,0.00,VWS V14.01,2013-11-02 14:24:00,
2013-11-02 09:29:00,59.7,58.6,29.95,NNW,336,0.0,0.0,96,0.00,,---,0.00,VWS V14.01,2013-11-02 14:29:00,
2013-11-02 09:34:00,60.3,58.9,29.94,NNE,27,0.0,0.0,95,0.00,,---,0.00,VWS V14.01,2013-11-02 14:34:00,
2013-11-02 09:39:00,60.8,58.5,29.94,NNE,27,0.0,0.0,92,0.00,,---,0.00,VWS V14.01,2013-11-02 14:39:00,
2013-11-02 09:44:00,61.5,59.2,29.95,ENE,65,0.0,2.0,92,0.00,,---,0.00,VWS V14.01,2013-11-02 14:44:00,
2013-11-02 09:49:00,62.1,58.8,29.95,ENE,64,0.0,2.0,89,0.00,,---,0.00,VWS V14.01,2013-11-02 14:49:00,
2013-11-02 09:54:00,62.8,58.6,29.95,WSW,252,0.0,2.0,86,0.00,,---,0.00,VWS V14.01,2013-11-02 14:54:00,
2013-11-02 09:59:00,63.6,58.7,29.95,NW,315,0.0,1.0,84,0.00,,---,0.00,VWS V14.01,2013-11-02 14:59:00,
2013-11-02 10:04:00,64.1,59.2,29.95,ENE,77,4.0,4.0,84,0.00,,---,0.00,VWS V14.01,2013-11-02 15:04:00,
2013-11-02 10:09:00,64.6,58.7,29.95,East,83,0.0,5.0,81,0.00,,---,0.00,VWS V14.01,2013-11-02 15:09:00,
2013-11-02 10:14:00,65.2,58.9,29.95,SE,131,1.0,5.0,80,0.00,,---,0.00,VWS V14.01,2013-11-02 15:14:00,
2013-11-02 10:19:00,65.6,58.9,29.96,SW,229,0.0,5.0,79,0.00,,---,0.00,VWS V14.01,2013-11-02 15:19:00,
2013-11-02 10:24:00,66.0,59.0,29.95,SE,134,1.0,5.0,78,0.00,,---,0.00,VWS V14.01,2013-11-02 15:24:00,
2013-11-02 10:29:00,66.5,59.8,29.96,SSW,208,0.0,0.0,79,0.00,,---,0.00,VWS V14.01,2013-11-02 15:29:00,
2013-11-02 10:34:00,66.9,59.5,29.96,SE,129,0.0,2.0,77,0.00,,---,0.00,VWS V14.01,2013-11-02 15:34:00,
2013-11-02 10:39:00,67.5,58.9,29.96,East,83,1.0,2.0,74,0.00,,---,0.00,VWS V14.01,2013-11-02 15:39:00,
2013-11-02 10:44:00,67.8,59.6,29.95,ESE,115,0.0,2.0,75,0.00,,---,0.00,VWS V14.01,2013-11-02 15:44:00,
2013-11-02 10:49:00,67.9,58.9,29.95,ENE,63,0.0,2.0,73,0.00,,---,0.00,VWS V14.01,2013-11-02 15:49:00,
2013-11-02 10:54:00,68.3,58.2,29.95,West,280,0.0,2.0,70,0.00,,---,0.00,VWS V14.01,2013-11-02 15:54:00,
2013-11-02 10:59:00,68.8,59.8,29.95,ESE,103,0.0,1.0,73,0.00,,---,0.00,VWS V14.01,2013-11-02 15:59:00,
2013-11-02 11:04:00,69.2,58.6,29.95,SW,217,0.0,2.0,69,0.00,,---,0.00,VWS V14.01,2013-11-02 16:04:00,
2013-11-02 11:09:00,69.6,58.2,29.95,East,97,0.0,2.0,67,0.00,,---,0.00,VWS V14.01,2013-11-02 16:09:00,
2013-11-02 11:14:00,69.7,58.7,29.95,East,100,0.0,2.0,68,0.00,,---,0.00,VWS V14.01,2013-11-02 16:14:00,
2013-11-02 11:19:00,70.2,59.6,29.95,ENE,60,0.0,2.0,69,0.00,,---,0.00,VWS V14.01,2013-11-02 16:19:00,
2013-11-02 11:24:00,70.6,58.3,29.95,NE,42,0.0,2.0,65,0.00,,---,0.00,VWS V14.01,2013-11-02 16:24:00,
2013-11-02 11:29:00,71.0,57.8,29.95,ESE,117,0.0,1.0,63,0.00,,---,0.00,VWS V14.01,2013-11-02 16:29:00,
2013-11-02 11:34:00,71.4,59.5,29.95,NW,326,0.0,1.0,66,0.00,,---,0.00,VWS V14.01,2013-11-02 16:34:00,
2013-11-02 11:39:00,71.8,58.5,29.95,SW,224,0.0,2.0,63,0.00,,---,0.00,VWS V14.01,2013-11-02 16:39:00,
2013-11-02 11:44:00,72.3,59.5,29.95,South,181,0.0,2.0,64,0.00,,---,0.00,VWS V14.01,2013-11-02 16:44:00,
2013-11-02 11:49:00,72.7,57.6,29.95,West,262,0.0,3.0,59,0.00,,---,0.00,VWS V14.01,2013-11-02 16:49:00,
2013-11-02 11:54:00,73.1,58.4,29.95,West,274,0.0,3.0,60,0.00,,---,0.00,VWS V14.01,2013-11-02 16:54:00,
2013-11-02 11:59:00,73.3,57.7,29.95,ENE,67,0.0,0.0,58,0.00,,---,0.00,VWS V14.01,2013-11-02 16:59:00,
2013-11-02 12:03:00,73.9,58.2,29.94,East,82,1.0,1.0,58,0.00,,---,0.00,VWS V14.01,2013-11-02 17:03:00,
2013-11-02 12:08:00,74.4,59.2,29.94,ENE,77,0.0,3.0,59,0.00,,---,0.00,VWS V14.01,2013-11-02 17:08:00,
2013-11-02 12:13:00,74.5,60.6,29.94,ESE,112,0.0,3.0,62,0.00,,---,0.00,VWS V14.01,2013-11-02 17:13:00,
2013-11-02 12:18:00,74.5,58.3,29.94,SE,136,0.0,3.0,57,0.00,,---,0.00,VWS V14.01,2013-11-02 17:18:00,
2013-11-02 12:23:00,75.0,60.7,29.94,SE,145,0.0,3.0,61,0.00,,---,0.00,VWS V14.01,2013-11-02 17:23:00,
2013-11-02 12:28:00,75.1,59.8,29.93,ESE,105,0.0,0.0,59,0.00,,---,0.00,VWS V14.01,2013-11-02 17:28:00,
2013-11-02 12:33:00,75.2,59.4,29.93,WNW,283,0.0,3.0,58,0.00,,---,0.00,VWS V14.01,2013-11-02 17:33:00,
2013-11-02 12:38:00,75.3,59.5,29.93,WNW,296,2.0,5.0,58,0.00,,---,0.00,VWS V14.01,2013-11-02 17:38:00,
2013-11-02 12:43:00,75.5,58.7,29.93,WNW,293,0.0,5.0,56,0.00,,---,0.00,VWS V14.01,2013-11-02 17:43:00,
2013-11-02 12:48:00,75.9,58.1,29.93,ENE,64,0.0,5.0,54,0.00,,---,0.00,VWS V14.01,2013-11-02 17:48:00,
2013-11-02 12:53:00,76.2,58.9,29.93,East,91,0.0,5.0,55,0.00,,---,0.00,VWS V14.01,2013-11-02 17:53:00,
2013-11-02 12:58:00,76.4,59.6,29.92,WSW,246,0.0,0.0,56,0.00,,---,0.00,VWS V14.01,2013-11-02 17:58:00,
2013-11-02 13:03:00,76.6,57.7,29.92,West,270,0.0,3.0,52,0.00,,---,0.00,VWS V14.01,2013-11-02 18:03:00,
2013-11-02 13:08:00,76.4,55.8,29.92,SSW,205,2.0,5.0,49,0.00,,---,0.00,VWS V14.01,2013-11-02 18:08:00,
2013-11-02 13:13:00,76.2,58.9,29.92,South,173,2.0,5.0,55,0.00,,---,0.00,VWS V14.01,2013-11-02 18:13:00,
2013-11-02 13:18:00,75.9,56.5,29.92,NNE,22,0.0,5.0,51,0.00,,---,0.00,VWS V14.01,2013-11-02 18:18:00,
2013-11-02 13:23:00,76.0,56.6,29.92,West,276,0.0,5.0,51,0.00,,---,0.00,VWS V14.01,2013-11-02 18:23:00,
2013-11-02 13:28:00,76.4,58.0,29.92,West,276,0.0,0.0,53,0.00,,---,0.00,VWS V14.01,2013-11-02 18:28:00,
2013-11-02 13:33:00,76.6,57.1,29.91,West,263,0.0,3.0,51,0.00,,---,0.00,VWS V14.01,2013-11-02 18:33:00,
2013-11-02 13:38:00,76.7,58.3,29.91,East,93,0.0,3.0,53,0.00,,---,0.00,VWS V14.01,2013-11-02 18:38:00,
2013-11-02 13:43:00,76.8,58.9,29.91,North,354,0.0,3.0,54,0.00,,---,0.00,VWS V14.01,2013-11-02 18:43:00,
2013-11-02 13:48:00,76.9,59.0,29.91,ENE,77,0.0,3.0,54,0.00,,---,0.00,VWS V14.01,2013-11-02 18:48:00,
2013-11-02 13:53:00,77.3,58.3,29.91,SE,125,0.0,3.0,52,0.00,,---,0.00,VWS V14.01,2013-11-02 18:53:00,
2013-11-02 13:58:00,77.3,59.4,29.90,WSW,255,0.0,0.0,54,0.00,,---,0.00,VWS V14.01,2013-11-02 18:58:00,
2013-11-02 14:03:00,77.0,57.5,29.90,West,266,0.0,3.0,51,0.00,,---,0.00,VWS V14.01,2013-11-02 19:03:00,
2013-11-02 14:08:00,76.6,57.7,29.90,East,97,0.0,3.0,52,0.00,,---,0.00,VWS V14.01,2013-11-02 19:08:00,
2013-11-02 14:13:00,76.4,56.4,29.90,West,267,1.0,3.0,50,0.00,,---,0.00,VWS V14.01,2013-11-02 19:13:00,
2013-11-02 14:18:00,76.3,55.2,29.90,East,100,2.0,4.0,48,0.00,,---,0.00,VWS V14.01,2013-11-02 19:18:00,
2013-11-02 14:23:00,76.0,54.3,29.90,ESE,105,0.0,4.0,47,0.00,,---,0.00,VWS V14.01,2013-11-02 19:23:00,
2013-11-02 14:28:00,75.7,54.6,29.90,ENE,77,1.0,1.0,48,0.00,,---,0.00,VWS V14.01,2013-11-02 19:28:00,
2013-11-02 14:33:00,75.7,55.8,29.89,ENE,75,0.0,4.0,50,0.00,,---,0.00,VWS V14.01,2013-11-02 19:33:00,
2013-11-02 14:38:00,75.6,55.1,29.90,ESE,102,2.0,5.0,49,0.00,,---,0.00,VWS V14.01,2013-11-02 19:38:00,
2013-11-02 14:43:00,75.4,55.5,29.89,West,270,1.0,5.0,50,0.00,,---,0.00,VWS V14.01,2013-11-02 19:43:00,
2013-11-02 14:48:00,75.0,55.7,29.89,WNW,301,2.0,5.0,51,0.00,,---,0.00,VWS V14.01,2013-11-02 19:48:00,
2013-11-02 14:53:00,74.9,57.2,29.89,WNW,297,0.0,5.0,54,0.00,,---,0.00,VWS V14.01,2013-11-02 19:53:00,
2013-11-02 14:58:00,74.8,56.0,29.89,ESE,115,0.0,0.0,52,0.00,,---,0.00,VWS V14.01,2013-11-02 19:58:00,
2013-11-02 15:03:00,74.9,57.2,29.89,ESE,112,0.0,2.0,54,0.00,,---,0.00,VWS V14.01,2013-11-02 20:03:00,
2013-11-02 15:08:00,74.6,54.8,29.89,ENE,77,0.0,3.0,50,0.00,,---,0.00,VWS V14.01,2013-11-02 20:08:00,
2013-11-02 15:13:00,74.6,57.4,29.89,SE,132,0.0,3.0,55,0.00,,---,0.00,VWS V14.01,2013-11-02 20:13:00,
2013-11-02 15:18:00,74.5,57.8,29.89,NW,314,0.0,3.0,56,0.00,,---,0.00,VWS V14.01,2013-11-02 20:18:00,
2013-11-02 15:23:00,74.3,55.6,29.89,ENE,60,2.0,6.0,52,0.00,,---,0.00,VWS V14.01,2013-11-02 20:23:00,
2013-11-02 15:28:00,73.9,55.2,29.90,North,352,0.0,0.0,52,0.00,,---,0.00,VWS V14.01,2013-11-02 20:28:00,
2013-11-02 15:33:00,73.4,55.8,29.90,SW,232,2.0,5.0,54,0.00,,---,0.00,VWS V14.01,2013-11-02 20:33:00,
2013-11-02 15:38:00,73.0,54.4,29.90,West,278,0.0,5.0,52,0.00,,---,0.00,VWS V14.01,2013-11-02 20:38:00,
2013-11-02 15:43:00,72.6,54.0,29.90,SW,214,0.0,5.0,52,0.00,,---,0.00,VWS V14.01,2013-11-02 20:43:00,
2013-11-02 15:48:00,72.1,53.5,29.90,NNW,343,0.0,5.0,52,0.00,,---,0.00,VWS V14.01,2013-11-02 20:48:00,
2013-11-02 15:53:00,71.7,55.2,29.90,West,267,0.0,5.0,56,0.00,,---,0.00,VWS V14.01,2013-11-02 20:53:00,
2013-11-02 15:58:00,71.5,56.4,29.90,WNW,288,0.0,5.0,59,0.00,,---,0.00,VWS V14.01,2013-11-02 20:58:00,
2013-11-02 16:03:00,71.1,57.0,29.90,ESE,106,0.0,1.0,61,0.00,,---,0.00,VWS V14.01,2013-11-02 21:03:00,
2013-11-02 16:08:00,70.7,54.2,29.90,NNE,15,0.0,2.0,56,0.00,,---,0.00,VWS V14.01,2013-11-02 21:08:00,
2013-11-02 16:13:00,70.5,52.0,29.90,East,97,0.0,3.0,52,0.00,,---,0.00,VWS V14.01,2013-11-02 21:13:00,
2013-11-02 16:18:00,70.3,53.4,29.91,SSW,203,0.0,3.0,55,0.00,,---,0.00,VWS V14.01,2013-11-02 21:18:00,
2013-11-02 16:23:00,70.1,52.7,29.91,ENE,61,0.0,3.0,54,0.00,,---,0.00,VWS V14.01,2013-11-02 21:23:00,
2013-11-02 16:28:00,69.9,52.5,29.91,ESE,103,0.0,3.0,54,0.00,,---,0.00,VWS V14.01,2013-11-02 21:28:00,
2013-11-02 16:33:00,69.7,53.3,29.91,NW,315,1.0,2.0,56,0.00,,---,0.00,VWS V14.01,2013-11-02 21:33:00,
2013-11-02 16:38:00,69.5,52.6,29.91,WNW,297,0.0,3.0,55,0.00,,---,0.00,VWS V14.01,2013-11-02 21:38:00,
2013-11-02 16:43:00,69.2,51.9,29.91,ESE,103,1.0,4.0,54,0.00,,---,0.00,VWS V14.01,2013-11-02 21:43:00,
2013-11-02 16:48:00,69.0,53.6,29.91,NW,304,0.0,4.0,58,0.00,,---,0.00,VWS V14.01,2013-11-02 21:48:00,
2013-11-02 16:53:00,68.6,53.7,29.91,North,354,0.0,4.0,59,0.00,,---,0.00,VWS V14.01,2013-11-02 21:53:00,
2013-11-02 16:58:00,68.4,53.5,29.92,SE,145,0.0,4.0,59,0.00,,---,0.00,VWS V14.01,2013-11-02 21:58:00,
2013-11-02 17:03:00,68.2,52.9,29.92,WNW,290,0.0,2.0,58,0.00,,---,0.00,VWS V14.01,2013-11-02 22:03:00,
2013-11-02 17:08:00,68.1,52.8,29.92,WSW,257,0.0,2.0,58,0.00,,---,0.00,VWS V14.01,2013-11-02 22:08:00,
2013-11-02 17:13:00,68.0,52.2,29.92,NW,321,0.0,5.0,57,0.00,,---,0.00,VWS V14.01,2013-11-02 22:13:00,
2013-11-02 17:17:00,67.8,53.9,29.92,West,263,0.0,5.0,61,0.00,,---,0.00,VWS V14.01,2013-11-02 22:17:00,
2013-11-02 17:22:00,67.3,53.0,29.92,ESE,116,0.0,5.0,60,0.00,,---,0.00,VWS V14.01,2013-11-02 22:22:00,
2013-11-02 17:27:00,66.8,52.9,29.93,East,100,0.0,5.0,61,0.00,,---,0.00,VWS V14.01,2013-11-02 22:27:00,
2013-11-02 17:32:00,66.3,53.3,29.93,East,101,0.0,0.0,63,0.00,,---,0.00,VWS V14.01,2013-11-02 22:32:00,
2013-11-02 17:37:00,65.7,53.2,29.93,WNW,284,0.0,1.0,64,0.00,,---,0.00,VWS V14.01,2013-11-02 22:37:00,
2013-11-02 17:42:00,65.2,53.6,29.93,WNW,284,0.0,1.0,66,0.00,,---,0.00,VWS V14.01,2013-11-02 22:42:00,
2013-11-02 17:47:00,64.6,52.2,29.94,East,86,0.0,1.0,64,0.00,,---,0.00,VWS V14.01,2013-11-02 22:47:00,
2013-11-02 17:52:00,64.3,54.3,29.94,East,86,0.0,1.0,70,0.00,,---,0.00,VWS V14.01,2013-11-02 22:52:00,
2013-11-02 17:57:00,63.7,53.7,29.94,East,86,0.0,1.0,70,0.00,,---,0.00,VWS V14.01,2013-11-02 22:57:00,
2013-11-02 18:02:00,63.0,53.5,29.94,East,86,0.0,0.0,71,0.00,,---,0.00,VWS V14.01,2013-11-02 23:02:00,
2013-11-02 18:07:00,62.4,53.3,29.95,East,86,0.0,0.0,72,0.00,,---,0.00,VWS V14.01,2013-11-02 23:07:00,
2013-11-02 18:12:00,61.8,52.3,29.95,East,86,0.0,0.0,71,0.00,,---,0.00,VWS V14.01,2013-11-02 23:12:00,
2013-11-02 18:17:00,61.3,51.8,29.95,East,86,0.0,0.0,71,0.00,,---,0.00,VWS V14.01,2013-11-02 23:17:00,
2013-11-02 18:22:00,60.7,51.2,29.95,East,86,0.0,0.0,71,0.00,,---,0.00,VWS V14.01,2013-11-02 23:22:00,
2013-11-02 18:27:00,60.2,51.9,29.96,East,86,0.0,0.0,74,0.00,,---,0.00,VWS V14.01,2013-11-02 23:27:00,
2013-11-02 18:32:00,59.7,52.1,29.96,East,86,0.0,0.0,76,0.00,,---,0.00,VWS V14.01,2013-11-02 23:32:00,
2013-11-02 18:37:00,59.3,51.0,29.97,East,86,0.0,0.0,74,0.00,,---,0.00,VWS V14.01,2013-11-02 23:37:00,
2013-11-02 18:42:00,58.9,51.0,29.97,East,86,0.0,0.0,75,0.00,,---,0.00,VWS V14.01,2013-11-02 23:42:00,
2013-11-02 18:47:00,58.5,51.3,29.97,East,86,0.0,0.0,77,0.00,,---,0.00,VWS V14.01,2013-11-02 23:47:00,
2013-11-02 18:52:00,58.0,50.8,29.97,East,86,0.0,0.0,77,0.00,,---,0.00,VWS V14.01,2013-11-02 23:52:00,
2013-11-02 18:57:00,57.5,51.0,29.98,East,86,0.0,0.0,79,0.00,,---,0.00,VWS V14.01,2013-11-02 23:57:00,
2013-11-02 19:02:00,57.1,50.3,29.98,East,86,0.0,0.0,78,0.00,,---,0.00,VWS V14.01,2013-11-03 00:02:00,
2013-11-02 19:07:00,56.7,49.9,29.98,East,85,0.0,0.0,78,0.00,,---,0.00,VWS V14.01,2013-11-03 00:07:00,
2013-11-02 19:12:00,56.6,50.5,29.99,East,85,0.0,0.0,80,0.00,,---,0.00,VWS V14.01,2013-11-03 00:12:00,
2013-11-02 19:17:00,56.3,50.5,29.99,East,85,0.0,0.0,81,0.00,,---,0.00,VWS V14.01,2013-11-03 00:17:00,
2013-11-02 19:22:00,56.0,49.6,29.99,East,85,0.0,0.0,79,0.00,,---,0.00,VWS V14.01,2013-11-03 00:22:00,
2013-11-02 19:27:00,55.9,49.8,30.00,East,85,0.0,0.0,80,0.00,,---,0.00,VWS V14.01,2013-11-03 00:27:00,
2013-11-02 19:32:00,55.7,49.6,30.00,East,85,0.0,0.0,80,0.00,,---,0.00,VWS V14.01,2013-11-03 00:32:00,
2013-11-02 19:37:00,55.4,49.7,30.00,East,84,0.0,0.0,81,0.00,,---,0.00,VWS V14.01,2013-11-03 00:37:00,
2013-11-02 19:42:00,55.1,49.7,30.00,East,84,0.0,0.0,82,0.00,,---,0.00,VWS V14.01,2013-11-03 00:42:00,
2013-11-02 19:47:00,55.0,49.6,30.00,East,85,0.0,0.0,82,0.00,,---,0.00,VWS V14.01,2013-11-03 00:47:00,
2013-11-02 19:52:00,54.8,49.4,30.01,East,85,0.0,0.0,82,0.00,,---,0.00,VWS V14.01,2013-11-03 00:52:00,
2013-11-02 19:57:00,54.8,49.4,30.01,East,85,0.0,0.0,82,0.00,,---,0.00,VWS V14.01,2013-11-03 00:57:00,
2013-11-02 20:02:00,54.7,49.3,30.01,East,85,0.0,0.0,82,0.00,,---,0.00,VWS V14.01,2013-11-03 01:02:00,
2013-11-02 20:07:00,54.5,49.1,30.01,East,85,0.0,0.0,82,0.00,,---,0.00,VWS V14.01,2013-11-03 01:07:00,
2013-11-02 20:12:00,54.2,48.8,30.02,East,85,0.0,0.0,82,0.00,,---,0.00,VWS V14.01,2013-11-03 01:12:00,
2013-11-02 20:17:00,54.0,49.0,30.02,East,85,0.0,0.0,83,0.00,,---,0.00,VWS V14.01,2013-11-03 01:17:00,
2013-11-02 20:22:00,53.9,48.9,30.02,East,85,0.0,0.0,83,0.00,,---,0.00,VWS V14.01,2013-11-03 01:22:00,
2013-11-02 20:27:00,53.8,48.8,30.02,East,84,0.0,0.0,83,0.00,,---,0.00,VWS V14.01,2013-11-03 01:27:00,
2013-11-02 20:32:00,53.7,48.7,30.02,East,84,0.0,0.0,83,0.00,,---,0.00,VWS V14.01,2013-11-03 01:32:00,
2013-11-02 20:37:00,53.7,48.3,30.03,East,85,0.0,0.0,82,0.00,,---,0.00,VWS V14.01,2013-11-03 01:37:00,
2013-11-02 20:42:00,53.7,48.3,30.03,East,85,0.0,0.0,82,0.00,,---,0.00,VWS V14.01,2013-11-03 01:42:00,
2013-11-02 20:47:00,54.0,48.3,30.03,East,84,0.0,0.0,81,0.00,,---,0.00,VWS V14.01,2013-11-03 01:47:00,
2013-11-02 20:52:00,54.3,48.3,30.03,ESE,109,0.0,0.0,80,0.00,,---,0.00,VWS V14.01,2013-11-03 01:52:00,
2013-11-02 20:57:00,54.4,48.4,30.04,NNW,339,0.0,0.0,80,0.00,,---,0.00,VWS V14.01,2013-11-03 01:57:00,
2013-11-02 21:02:00,54.4,48.0,30.04,NNW,339,0.0,0.0,79,0.00,,---,0.00,VWS V14.01,2013-11-03 02:02:00,
2013-11-02 21:07:00,54.2,48.2,30.04,NNW,339,0.0,0.0,80,0.00,,---,0.00,VWS V14.01,2013-11-03 02:07:00,
2013-11-02 21:12:00,54.0,48.3,30.04,NNW,338,0.0,0.0,81,0.00,,---,0.00,VWS V14.01,2013-11-03 02:12:00,
2013-11-02 21:17:00,53.9,47.9,30.04,NNE,24,0.0,0.0,80,0.00,,---,0.00,VWS V14.01,2013-11-03 02:17:00,
2013-11-02 21:22:00,53.9,48.2,30.05,NNE,24,0.0,0.0,81,0.00,,---,0.00,VWS V14.01,2013-11-03 02:22:00,
2013-11-02 21:27:00,53.9,48.2,30.05,WNW,285,0.0,0.0,81,0.00,,---,0.00,VWS V14.01,2013-11-03 02:27:00,
2013-11-02 21:32:00,54.1,48.4,30.05,SW,224,0.0,1.0,81,0.00,,---,0.00,VWS V14.01,2013-11-03 02:32:00,
2013-11-02 21:37:00,54.4,48.4,30.05,NNW,341,0.0,1.0,80,0.00,,---,0.00,VWS V14.01,2013-11-03 02:37:00,
2013-11-02 21:42:00,54.8,48.4,30.05,NNW,329,0.0,2.0,79,0.00,,---,0.00,VWS V14.01,2013-11-03 02:42:00,
2013-11-02 21:47:00,55.3,47.9,30.05,East,101,0.0,5.0,76,0.00,,---,0.00,VWS V14.01,2013-11-03 02:47:00,
2013-11-02 21:52:00,55.5,48.1,30.06,SSE,148,2.0,5.0,76,0.00,,---,0.00,VWS V14.01,2013-11-03 02:52:00,
2013-11-02 21:57:00,55.7,47.9,30.06,SE,139,0.0,5.0,75,0.00,,---,0.00,VWS V14.01,2013-11-03 02:57:00,
2013-11-02 22:02:00,55.9,48.1,30.06,SE,127,1.0,1.0,75,0.00,,---,0.00,VWS V14.01,2013-11-03 03:02:00,
2013-11-02 22:07:00,56.0,48.2,30.06,ENE,69,1.0,3.0,75,0.00,,---,0.00,VWS V14.01,2013-11-03 03:07:00,
2013-11-02 22:12:00,56.3,48.1,30.06,South,176,2.0,6.0,74,0.00,,---,0.00,VWS V14.01,2013-11-03 03:12:00,
2013-11-02 22:17:00,56.7,48.5,30.06,NW,304,0.0,6.0,74,0.00,,---,0.00,VWS V14.01,2013-11-03 03:17:00,
2013-11-02 22:22:00,56.6,47.7,30.06,South,187,0.0,6.0,72,0.00,,---,0.00,VWS V14.01,2013-11-03 03:22:00,
2013-11-02 22:27:00,56.7,47.8,30.06,NW,326,0.0,6.0,72,0.00,,---,0.00,VWS V14.01,2013-11-03 03:27:00,
2013-11-02 22:32:00,56.6,47.3,30.06,ESE,120,0.0,2.0,71,0.00,,---,0.00,VWS V14.01,2013-11-03 03:32:00,
2013-11-02 22:37:00,56.6,47.7,30.06,SE,125,0.0,2.0,72,0.00,,---,0.00,VWS V14.01,2013-11-03 03:37:00,
2013-11-02 22:42:00,56.4,47.5,30.06,SE,141,0.0,2.0,72,0.00,,---,0.00,VWS V14.01,2013-11-03 03:42:00,
2013-11-02 22:47:00,56.2,48.0,30.06,NW,319,0.0,2.0,74,0.00,,---,0.00,VWS V14.01,2013-11-03 03:47:00,
2013-11-02 22:51:00,56.1,47.2,30.07,West,262,0.0,2.0,72,0.00,,---,0.00,VWS V14.01,2013-11-03 03:51:00,
2013-11-02 22:56:00,56.1,47.9,30.06,NW,323,0.0,3.0,74,0.00,,---,0.00,VWS V14.01,2013-11-03 03:56:00,
2013-11-02 23:01:00,55.9,47.0,30.07,WNW,296,0.0,2.0,72,0.00,,---,0.00,VWS V14.01,2013-11-03 04:01:00,
2013-11-02 23:06:00,55.8,47.3,30.07,West,270,0.0,4.0,73,0.00,,---,0.00,VWS V14.01,2013-11-03 04:06:00,
2013-11-02 23:11:00,55.5,47.4,30.07,WNW,288,0.0,4.0,74,0.00,,---,0.00,VWS V14.01,2013-11-03 04:11:00,
2013-11-02 23:16:00,55.3,46.8,30.07,WNW,286,0.0,4.0,73,0.00,,---,0.00,VWS V14.01,2013-11-03 04:16:00,
2013-11-02 23:21:00,55.2,46.7,30.07,WSW,246,0.0,4.0,73,0.00,,---,0.00,VWS V14.01,2013-11-03 04:21:00,
2013-11-02 23:26:00,55.0,46.9,30.07,ESE,120,0.0,4.0,74,0.00,,---,0.00,VWS V14.01,2013-11-03 04:26:00,
2013-11-02 23:31:00,54.8,46.7,30.07,WSW,243,0.0,0.0,74,0.00,,---,0.00,VWS V14.01,2013-11-03 04:31:00,
2013-11-02 23:36:00,54.5,46.8,30.07,ENE,75,0.0,1.0,75,0.00,,---,0.00,VWS V14.01,2013-11-03 04:36:00,
2013-11-02 23:41:00,54.3,46.6,30.07,NNW,348,0.0,1.0,75,0.00,,---,0.00,VWS V14.01,2013-11-03 04:41:00,
2013-11-02 23:46:00,54.3,46.6,30.07,West,267,0.0,2.0,75,0.00,,---,0.00,VWS V14.01,2013-11-03 04:46:00,
2013-11-02 23:51:00,54.3,46.9,30.07,SW,217,1.0,2.0,76,0.00,,---,0.00,VWS V14.01,2013-11-03 04:51:00,
2013-11-02 23:56:00,54.3,46.9,30.07,West,271,3.0,3.0,76,0.00,,---,0.00,VWS V14.01,2013-11-03 04:56:00,